Flag for Taiwan Weather past 2 weeks in Kaohsiung, Taiwan

Now
63 °F

Passing clouds.


Feels Like: 63 °F
Forecast: 54 / 70 °F
Wind: 3 mph from Northeast

Location: Kaohsiung International Airport

Current Time: Dec 19, 2014 at 5:16:39 AM

Latest Report: Dec 19, 2014 at 4:00 AM


Visibility: 4 mi

Pressure: 30.18 "Hg

Humidity: 73%

Dew point: 54 °F

Location of KaohsiungLocation

Historic Weather in Kaohsiung — Graph

°F

Kaohsiung temperature yesterday

Maximum temperature yesterday: 73 °F (at 12:30 PM)
Minimum temperature yesterday: 57 °F (at 6:30 AM)
Average temperature yesterday: 66 °F

Past Weeks' High & Low Weather Summary

 TemperatureHumidityPressure
High82 °F (Dec 10, 1:00 PM)94% (Dec 4, 6:30 AM)30.30 "Hg (Dec 4, 6:30 AM)
Low57 °F (Dec 5, 4:00 AM)39% (Dec 8, 3:00 PM)29.95 "Hg (Dec 11, 2:00 PM)
Average69 °F68%30.11 "Hg
* Reported Dec 4 4:00 AM — Dec 19 4:00 AM, Kaohsiung, Weather by CustomWeather, © 2014

Note: Actual official high and low records may vary slightly from our data, if they occured in-between our weather recording intervals... More about our weather records

Advertising

Kaohsiung weather history for previous 24 hours

 ConditionsComfort  
Time TempWeatherWind HumidityBarometerVisibility
4:00 AM
Dec 19
63 °FPassing clouds.3 mph73%30.18 "Hg4 mi
3:00 AM63 °FPassing clouds.3 mph73%30.18 "Hg4 mi
2:00 AM63 °FPartly cloudy.3 mph73%30.21 "Hg4 mi
1:00 AM63 °FPartly cloudy.5 mph68%30.21 "Hg4 mi
12:00 AM64 °FPartly cloudy.3 mph64%30.24 "Hg4 mi
11:00 PM
Dec 18
64 °FPassing clouds.5 mph64%30.24 "Hg4 mi
10:30 PM64 °FPartly cloudy.6 mph64%30.27 "Hg4 mi
10:00 PM64 °FPartly cloudy.6 mph64%30.27 "Hg4 mi
9:30 PM66 °FPartly cloudy.6 mph64%30.27 "Hg4 mi
9:00 PM66 °FPartly cloudy.7 mph64%30.27 "Hg4 mi
8:30 PM66 °FPartly cloudy.6 mph68%30.24 "Hg5 mi
8:00 PM66 °FPassing clouds.5 mph68%30.24 "Hg4 mi
7:30 PM66 °FPartly cloudy.5 mph68%30.24 "Hg4 mi
7:00 PM66 °FPassing clouds.5 mph68%30.24 "Hg4 mi
6:30 PM66 °FPassing clouds.5 mph68%30.21 "Hg4 mi
6:00 PM66 °FPassing clouds.7 mph68%30.21 "Hg4 mi
5:30 PM66 °FPassing clouds.7 mph68%30.21 "HgN/A
5:00 PM66 °FPartly sunny.7 mph64%30.21 "HgN/A
4:30 PM68 °FPartly sunny.6 mph60%30.21 "HgN/A
4:00 PM70 °FPartly sunny.9 mph57%30.18 "HgN/A
3:30 PM70 °FPartly sunny.10 mph57%30.18 "HgN/A
3:00 PM70 °FPartly sunny.12 mph57%30.18 "HgN/A
2:30 PM72 °FScattered clouds.12 mph53%30.18 "HgN/A
2:00 PM72 °FScattered clouds.10 mph53%30.18 "HgN/A
1:30 PM72 °FScattered clouds.12 mph53%30.21 "HgN/A
1:00 PM72 °FScattered clouds.10 mph50%30.21 "HgN/A
12:30 PM73 °FScattered clouds.10 mph47%30.24 "Hg5 mi
11:30 AM72 °FBroken clouds.7 mph50%30.27 "HgN/A
11:00 AM72 °FPartly sunny.6 mph53%30.27 "HgN/A
10:30 AM70 °FPartly sunny.8 mph57%30.30 "Hg4 mi
10:00 AM70 °FPartly sunny.7 mph57%30.30 "Hg5 mi
9:30 AM70 °FPartly sunny.6 mph57%30.30 "Hg4 mi
9:00 AM68 °FScattered clouds.3 mph56%30.30 "Hg4 mi
8:30 AM66 °FScattered clouds.3 mph56%30.30 "Hg4 mi
8:00 AM63 °FScattered clouds.3 mph59%30.27 "Hg4 mi
7:30 AM61 °FBroken clouds.2 mph68%30.27 "Hg4 mi
7:00 AM59 °FScattered clouds.3 mph68%30.27 "Hg4 mi
6:30 AM57 °FPassing clouds.3 mph72%30.27 "Hg4 mi
6:00 AM59 °FPartly cloudy.3 mph63%30.24 "Hg4 mi
5:00 AM59 °FPartly cloudy.5 mph63%30.24 "Hg4 mi
Weather by CustomWeather, © 2014

See weather overviewHow to use our weather pages